Retour au catalogue

FENGYUN 1C DEB

ActifSSO
NORAD 30802·DEBRIS·🇨🇳 China

Lancé May 10, 1999 depuis Taiyuan Satellite Launch Center

Loading…

Prochains Passages (prochaines 24 heures)

TLE

FraisSource: Space-Track

Époque: Sep 14, 2026, 04:48 UTC

1 30802U 99025AUL 26257.20013727  .00002530  00000-0  90926-3 0  9991
2 30802  98.8340 354.7039 0016672 308.2518  81.3300 14.34655168 11489

Suivez FENGYUN 1C DEB en temps réel avec AllMySat

Download on the App Store